Stations météo

Publicité
Cassley, Grande-Bretagne (99003): Température de l'air & dewpoint: 20.09.2017 11:00:00 - 26.09.2017 11:00:00 (BST)Cassley, Grande-Bretagne (99003): Quantités de précipitations: 20.09.2017 11:00:00 - 26.09.2017 11:00:00 (BST)
Date & Time tt [°C] td [°C] rr [mm]
26.09.2017 11:00:00 13,5 12,8 0,0
26.09.2017 10:00:00 12,1 11,5 0,0
26.09.2017 09:00:00 11,4 10,9 0,0
26.09.2017 08:00:00 10,3 10,0 0,0
26.09.2017 07:00:00 9,4 8,9 0,0
26.09.2017 06:00:00 9,9 9,7 0,0
26.09.2017 05:00:00 10,4 10,2 0,0
26.09.2017 04:00:00 10,6 10,4 0,0
26.09.2017 03:00:00 11,1 10,9 0,0
26.09.2017 02:00:00 10,8 10,7 0,0
26.09.2017 01:00:00 10,2 10,1 0,0
26.09.2017 00:00:00 9,5 9,3 0,0
25.09.2017 23:00:00 8,6 8,3 0,0
25.09.2017 22:00:00 8,9 8,6 0,0
25.09.2017 21:00:00 10,0 9,2 0,0
25.09.2017 20:00:00 12,6 11,6 0,0
25.09.2017 19:00:00 13,2 11,8 0,0
25.09.2017 18:00:00 14,6 12,6 0,0
25.09.2017 17:00:00 14,9 12,9 0,0
25.09.2017 16:00:00 14,5 12,9 0,0
25.09.2017 15:00:00 14,4 13,0 0,2
25.09.2017 14:00:00 13,6 12,9 0,4
25.09.2017 13:00:00 13,6 12,8 0,0
25.09.2017 12:00:00 13,6 13,1 0,2
25.09.2017 11:00:00 12,9 12,4 0,4
25.09.2017 10:00:00 12,4 12,3 0,2
25.09.2017 09:00:00 12,2 12,1 0,2
25.09.2017 08:00:00 12,1 11,9 0,2
25.09.2017 07:00:00 12,1 11,9 0,4
25.09.2017 06:00:00 12,1 11,9 0,2
25.09.2017 05:00:00 12,0 11,8 1,0
25.09.2017 04:00:00 12,2 12,0 0,0
25.09.2017 03:00:00 12,2 12,0 0,0
25.09.2017 02:00:00 12,3 12,1 0,0
25.09.2017 01:00:00 12,4 12,2 0,0
25.09.2017 00:00:00 12,4 12,2 0,0
24.09.2017 23:00:00 12,4 12,2 0,2
24.09.2017 22:00:00 12,5 12,2 0,4
24.09.2017 21:00:00 12,6 12,3 0,8
24.09.2017 20:00:00 12,7 12,3 2,4
24.09.2017 19:00:00 13,4 12,2 0,2
24.09.2017 18:00:00 13,8 12,4 0,0
24.09.2017 17:00:00 14,6 12,2 0,0
24.09.2017 16:00:00 14,8 12,1 0,0
24.09.2017 15:00:00 14,8 12,4 0,0
24.09.2017 14:00:00 14,9 12,1 0,0
24.09.2017 13:00:00 14,7 12,1 0,0
24.09.2017 12:00:00 14,2 12,2 0,0
24.09.2017 11:00:00 13,7 11,6 0,0
24.09.2017 10:00:00 13,2 11,2 0,0
24.09.2017 09:00:00 13,1 10,6 0,0
24.09.2017 08:00:00 13,4 9,9 0,0
24.09.2017 07:00:00 13,7 10,2 0,0
24.09.2017 06:00:00 12,8 9,5 0,0
24.09.2017 05:00:00 12,5 8,8 0,0
24.09.2017 04:00:00 13,6 8,6 0,0
24.09.2017 03:00:00 12,9 8,1 0,0
24.09.2017 02:00:00 13,5 7,6 0,0
24.09.2017 01:00:00 13,6 7,7 0,0
24.09.2017 00:00:00 14,5 9,0 0,0
23.09.2017 23:00:00 15,4 11,7 0,0
23.09.2017 22:00:00 14,4 12,3 0,0
23.09.2017 21:00:00 14,0 12,2 0,0
23.09.2017 20:00:00 14,4 11,9 0,0
23.09.2017 19:00:00 15,3 11,8 0,0
23.09.2017 18:00:00 15,9 11,7 0,0
23.09.2017 17:00:00 16,5 12,0 0,0
23.09.2017 16:00:00 17,4 11,7 0,0
23.09.2017 15:00:00 17,7 11,7 0,0
23.09.2017 14:00:00 16,8 11,1 0,0
23.09.2017 13:00:00 16,0 10,3 0,0
23.09.2017 12:00:00 14,9 10,4 0,0
23.09.2017 11:00:00 14,0 10,7 0,0
23.09.2017 10:00:00 10,6 9,8 0,0
23.09.2017 09:00:00 8,9 8,8 0,0
23.09.2017 08:00:00 7,5 7,4 0,0
23.09.2017 07:00:00 7,2 7,1 0,0
23.09.2017 06:00:00 7,5 7,4 0,0
23.09.2017 05:00:00 6,9 6,8 0,0
23.09.2017 04:00:00 5,3 5,2 0,0
23.09.2017 03:00:00 5,1 4,9 0,0
23.09.2017 02:00:00 5,2 4,9 0,0
23.09.2017 01:00:00 6,0 5,5 0,0
23.09.2017 00:00:00 7,4 6,7 0,0
22.09.2017 23:00:00 8,0 6,8 0,0
22.09.2017 22:00:00 8,5 7,3 0,0
22.09.2017 21:00:00 9,1 7,8 0,0
22.09.2017 20:00:00 11,1 9,9 0,2
22.09.2017 19:00:00 11,4 10,1 0,0
22.09.2017 18:00:00 11,9 10,3 0,0
22.09.2017 17:00:00 11,7 10,4 0,0
22.09.2017 16:00:00 11,1 9,8 0,2
22.09.2017 15:00:00 10,6 9,7 0,6
22.09.2017 14:00:00 10,1 9,3 0,8
22.09.2017 13:00:00 9,9 8,6 0,2
22.09.2017 12:00:00 10,0 8,0 0,0
22.09.2017 11:00:00 8,4 8,1 0,0
22.09.2017 10:00:00 7,1 7,1 0,0
22.09.2017 09:00:00 6,2 6,2 0,0
22.09.2017 08:00:00 5,5 5,5 0,2
22.09.2017 07:00:00 5,3 5,3 0,0
22.09.2017 06:00:00 5,1 5,1 0,0
22.09.2017 05:00:00 5,3 5,3 0,0
22.09.2017 04:00:00 5,2 5,2 0,2
22.09.2017 03:00:00 5,3 5,3 0,0
22.09.2017 02:00:00 5,5 5,4 0,0
22.09.2017 01:00:00 5,7 5,6 0,0
22.09.2017 00:00:00 3,9 3,6 0,0
21.09.2017 23:00:00 4,2 3,7 0,0
21.09.2017 22:00:00 5,4 5,1 0,0
21.09.2017 21:00:00 5,9 5,0 0,0
21.09.2017 20:00:00 7,0 5,5 0,0
21.09.2017 19:00:00 8,5 7,1 0,0
21.09.2017 18:00:00 12,7 7,7 0,0
21.09.2017 17:00:00 12,1 8,9 0,0
21.09.2017 16:00:00 11,0 9,1 0,2
21.09.2017 15:00:00 10,7 8,8 0,2
21.09.2017 14:00:00 11,0 8,8 0,2
21.09.2017 13:00:00 10,8 8,8 0,2
21.09.2017 12:00:00 10,3 8,7 0,4
21.09.2017 11:00:00 9,9 8,1 0,2
21.09.2017 10:00:00 9,5 8,7 0,6
21.09.2017 09:00:00 8,9 8,3 0,2
21.09.2017 08:00:00 8,5 7,9 0,0
21.09.2017 07:00:00 8,4 7,7 0,0
21.09.2017 06:00:00 7,9 7,2 0,0
21.09.2017 05:00:00 8,6 7,8 0,0
21.09.2017 04:00:00 8,9 8,4 0,0
21.09.2017 03:00:00 9,0 8,3 0,2
21.09.2017 02:00:00 8,9 8,5 0,0
21.09.2017 01:00:00 9,0 8,3 0,4
21.09.2017 00:00:00 9,1 8,4 0,6
20.09.2017 23:00:00 9,4 8,6 1,4
20.09.2017 22:00:00 9,9 8,8 0,6
20.09.2017 21:00:00 10,3 9,3 1,0
20.09.2017 20:00:00 10,3 9,3 0,6
20.09.2017 19:00:00 10,8 9,6 0,0
20.09.2017 18:00:00 11,5 9,9 0,0
20.09.2017 17:00:00 12,3 10,1 0,0
20.09.2017 16:00:00 13,2 10,2 0,0
20.09.2017 15:00:00 12,5 10,8 0,0
20.09.2017 14:00:00 13,1 11,4 0,2
20.09.2017 13:00:00 12,5 12,1 0,2
20.09.2017 12:00:00 11,7 11,2 0,0
20.09.2017 11:00:00 11,2 10,5 0,0

tt = Température de l'air
td = dewpoint
rr = Quantités de précipitations

stations d'obs. à proximité